Time,TemperatureF,DewpointF,PressureIn,WindDirection,WindDirectionDegrees,WindSpeedMPH,WindSpeedGustMPH,Humidity,HourlyPrecipIn,Conditions,Clouds,dailyrainin,SoftwareType,DateUTC
2013-05-19 00:00:00,56.9,53.6,30.08,South,180,1.6,3.1,89,0.00,,,0.00,Weather8,2013-05-19 04:00:00,
2013-05-19 00:01:00,56.9,53.6,30.08,SSW,202,1.3,3.1,89,0.00,,,0.00,Weather8,2013-05-19 04:01:00,
2013-05-19 00:05:00,56.9,53.6,30.08,SSW,202,0.9,4.0,89,0.00,,,0.00,Weather8,2013-05-19 04:05:00,
2013-05-19 00:06:00,56.9,53.6,30.08,SSW,202,2.2,4.0,89,0.00,,,0.00,Weather8,2013-05-19 04:06:00,
2013-05-19 00:11:00,56.9,53.6,30.08,SE,135,1.1,4.0,89,0.00,,,0.00,Weather8,2013-05-19 04:11:00,
2013-05-19 00:16:00,56.9,53.6,30.08,SSE,157,1.3,2.2,89,0.00,,,0.00,Weather8,2013-05-19 04:16:00,
2013-05-19 00:21:00,56.9,53.6,30.08,SW,225,2.5,2.5,89,0.00,,,0.00,Weather8,2013-05-19 04:21:00,
2013-05-19 00:26:00,56.7,53.5,30.08,West,270,2.2,2.5,89,0.00,,,0.00,Weather8,2013-05-19 04:26:00,
2013-05-19 00:31:00,56.7,53.5,30.08,South,180,0.7,2.5,89,0.00,,,0.00,Weather8,2013-05-19 04:31:00,
2013-05-19 00:36:00,56.7,53.5,30.08,SSW,202,0.4,2.5,89,0.00,,,0.00,Weather8,2013-05-19 04:36:00,
2013-05-19 00:39:00,56.5,53.3,30.08,SSE,157,2.5,2.5,89,0.00,,,0.00,Weather8,2013-05-19 04:39:00,
2013-05-19 00:44:00,56.5,53.3,30.08,South,180,2.5,2.5,89,0.00,,,0.00,Weather8,2013-05-19 04:44:00,
2013-05-19 00:49:00,56.5,53.3,30.08,SSW,202,1.8,2.5,89,0.00,,,0.00,Weather8,2013-05-19 04:49:00,
2013-05-19 00:54:00,56.5,53.3,30.08,ESE,112,1.8,2.5,89,0.00,,,0.00,Weather8,2013-05-19 04:54:00,
2013-05-19 00:59:00,56.5,53.3,30.08,SE,135,2.9,2.9,89,0.00,,,0.00,Weather8,2013-05-19 04:59:00,
2013-05-19 01:04:00,56.3,53.1,30.08,South,180,0.4,2.9,89,0.00,,,0.00,Weather8,2013-05-19 05:04:00,
2013-05-19 01:09:00,56.3,53.1,30.08,SSW,202,1.1,2.9,89,0.00,,,0.00,Weather8,2013-05-19 05:09:00,
2013-05-19 01:14:00,56.3,53.1,30.08,SW,225,1.8,2.9,89,0.00,,,0.00,Weather8,2013-05-19 05:14:00,
2013-05-19 01:19:00,56.3,53.1,30.08,NNE,22,0.4,2.9,89,0.00,,,0.00,Weather8,2013-05-19 05:19:00,
2013-05-19 01:24:00,56.3,53.1,30.08,SE,135,0.7,2.5,89,0.00,,,0.00,Weather8,2013-05-19 05:24:00,
2013-05-19 01:29:00,56.2,52.9,30.08,SE,135,0.4,2.2,89,0.00,,,0.00,Weather8,2013-05-19 05:29:00,
2013-05-19 01:34:00,56.2,52.9,30.08,SE,135,0.2,2.2,89,0.00,,,0.00,Weather8,2013-05-19 05:34:00,
2013-05-19 01:39:00,56.2,52.9,30.08,ESE,112,0.9,1.3,89,0.00,,,0.00,Weather8,2013-05-19 05:39:00,
2013-05-19 01:44:00,56.2,52.9,30.08,SSE,157,0.9,1.1,89,0.00,,,0.00,Weather8,2013-05-19 05:44:00,
2013-05-19 01:49:00,56.2,52.9,30.07,SE,135,1.6,1.6,89,0.00,,,0.00,Weather8,2013-05-19 05:49:00,
2013-05-19 01:54:00,56.2,52.9,30.07,SE,135,0.7,1.6,89,0.00,,,0.00,Weather8,2013-05-19 05:54:00,
2013-05-19 01:59:00,56.2,52.9,30.07,SE,135,1.1,1.6,89,0.00,,,0.00,Weather8,2013-05-19 05:59:00,
2013-05-19 02:04:00,56.2,52.9,30.07,SE,135,1.6,1.6,89,0.00,,,0.00,Weather8,2013-05-19 06:04:00,
2013-05-19 02:09:00,56.2,52.9,30.07,SE,135,0.7,1.8,89,0.00,,,0.00,Weather8,2013-05-19 06:09:00,
2013-05-19 02:14:00,56.0,52.7,30.07,ESE,112,0.7,1.8,89,0.00,,,0.00,Weather8,2013-05-19 06:14:00,
2013-05-19 02:19:00,56.0,52.7,30.07,SSW,202,1.1,1.8,89,0.00,,,0.00,Weather8,2013-05-19 06:19:00,
2013-05-19 02:24:00,55.8,52.6,30.06,ESE,112,1.1,1.8,89,0.00,,,0.00,Weather8,2013-05-19 06:24:00,
2013-05-19 02:29:00,56.0,52.7,30.06,SW,225,0.4,1.8,89,0.00,,,0.00,Weather8,2013-05-19 06:29:00,
2013-05-19 02:34:00,55.8,52.6,30.06,SE,135,1.1,1.8,89,0.00,,,0.00,Weather8,2013-05-19 06:34:00,
2013-05-19 02:39:00,55.8,52.6,30.06,ESE,112,0.7,2.2,89,0.00,,,0.00,Weather8,2013-05-19 06:39:00,
2013-05-19 02:44:00,55.8,52.6,30.06,East,90,0.7,2.2,89,0.00,,,0.00,Weather8,2013-05-19 06:44:00,
2013-05-19 02:49:00,55.8,52.6,30.05,ESE,112,0.9,1.3,89,0.00,,,0.00,Weather8,2013-05-19 06:49:00,
2013-05-19 02:54:00,55.8,52.6,30.05,SE,135,1.8,1.8,89,0.00,,,0.00,Weather8,2013-05-19 06:54:00,
2013-05-19 02:59:00,55.8,52.6,30.05,ESE,112,0.4,2.5,89,0.00,,,0.00,Weather8,2013-05-19 06:59:00,
2013-05-19 03:04:00,55.8,52.6,30.05,SE,135,1.1,2.5,89,0.00,,,0.00,Weather8,2013-05-19 07:04:00,
2013-05-19 03:09:00,55.8,52.6,30.05,SSE,157,1.8,1.8,89,0.00,,,0.00,Weather8,2013-05-19 07:09:00,
2013-05-19 03:15:00,55.8,52.6,30.05,SE,135,1.8,1.8,89,0.00,,,0.00,Weather8,2013-05-19 07:15:00,
2013-05-19 03:20:00,55.8,52.6,30.05,SE,135,1.1,1.8,89,0.00,,,0.00,Weather8,2013-05-19 07:20:00,
2013-05-19 03:25:00,55.8,52.6,30.05,ESE,112,1.6,1.8,89,0.00,,,0.00,Weather8,2013-05-19 07:25:00,
2013-05-19 03:30:00,55.8,52.6,30.05,SW,225,1.1,1.8,89,0.00,,,0.00,Weather8,2013-05-19 07:30:00,
2013-05-19 03:35:00,55.8,52.6,30.05,SE,135,0.4,1.8,89,0.00,,,0.00,Weather8,2013-05-19 07:35:00,
2013-05-19 03:40:00,55.8,52.6,30.04,SE,135,1.8,1.8,89,0.00,,,0.00,Weather8,2013-05-19 07:40:00,
2013-05-19 03:45:00,55.8,52.6,30.05,SSE,157,1.1,2.2,89,0.00,,,0.00,Weather8,2013-05-19 07:45:00,
2013-05-19 03:50:00,55.8,52.6,30.05,SSE,157,0.2,2.2,89,0.00,,,0.00,Weather8,2013-05-19 07:50:00,
2013-05-19 03:55:00,55.8,52.6,30.05,SW,225,1.3,2.2,89,0.00,,,0.00,Weather8,2013-05-19 07:55:00,
2013-05-19 04:00:00,56.0,53.1,30.05,SSW,202,1.1,2.2,90,0.00,,,0.00,Weather8,2013-05-19 08:00:00,
2013-05-19 04:05:00,56.0,52.7,30.05,SE,135,1.3,2.0,89,0.00,,,0.00,Weather8,2013-05-19 08:05:00,
2013-05-19 04:10:00,56.0,52.7,30.05,SSW,202,0.9,2.5,89,0.00,,,0.00,Weather8,2013-05-19 08:10:00,
2013-05-19 04:15:00,56.0,52.7,30.04,SSE,157,0.7,2.5,89,0.00,,,0.00,Weather8,2013-05-19 08:15:00,
2013-05-19 04:20:00,56.0,53.1,30.05,SSE,157,0.4,3.1,90,0.00,,,0.00,Weather8,2013-05-19 08:20:00,
2013-05-19 04:25:00,56.2,52.9,30.05,SSW,202,0.7,3.1,89,0.00,,,0.00,Weather8,2013-05-19 08:25:00,
2013-05-19 04:30:00,56.2,52.9,30.05,South,180,2.5,3.1,89,0.00,,,0.00,Weather8,2013-05-19 08:30:00,
2013-05-19 04:35:00,56.2,53.3,30.05,SSE,157,0.9,2.5,90,0.00,,,0.00,Weather8,2013-05-19 08:35:00,
2013-05-19 04:40:00,56.2,52.9,30.05,SSW,202,0.9,2.5,89,0.00,,,0.00,Weather8,2013-05-19 08:40:00,
2013-05-19 04:45:00,56.2,53.3,30.05,SSE,157,0.9,2.5,90,0.00,,,0.00,Weather8,2013-05-19 08:45:00,
2013-05-19 04:50:00,56.3,53.5,30.05,SSW,202,2.2,2.5,90,0.00,,,0.00,Weather8,2013-05-19 08:50:00,
2013-05-19 04:55:00,56.3,53.1,30.05,SW,225,2.0,2.5,89,0.00,,,0.00,Weather8,2013-05-19 08:55:00,
2013-05-19 05:00:00,56.3,53.1,30.05,SE,135,1.1,2.2,89,0.00,,,0.00,Weather8,2013-05-19 09:00:00,
2013-05-19 05:05:00,56.3,53.1,30.05,SSE,157,2.5,2.5,89,0.00,,,0.00,Weather8,2013-05-19 09:05:00,
2013-05-19 05:10:00,56.3,53.1,30.05,SE,135,1.3,2.5,89,0.00,,,0.00,Weather8,2013-05-19 09:10:00,
2013-05-19 05:15:00,56.3,53.1,30.05,SSE,157,0.4,2.5,89,0.00,,,0.00,Weather8,2013-05-19 09:15:00,
2013-05-19 05:20:00,56.3,53.1,30.05,SSE,157,0.4,1.8,89,0.00,,,0.00,Weather8,2013-05-19 09:20:00,
2013-05-19 05:25:00,56.3,53.1,30.05,SSE,157,0.4,0.4,89,0.00,,,0.00,Weather8,2013-05-19 09:25:00,
2013-05-19 05:30:00,56.3,53.1,30.05,SSE,157,0.4,0.4,89,0.00,,,0.00,Weather8,2013-05-19 09:30:00,
2013-05-19 05:35:00,56.3,53.1,30.05,SSE,157,0.4,0.4,89,0.00,,,0.00,Weather8,2013-05-19 09:35:00,
2013-05-19 05:40:00,56.3,53.1,30.05,SSE,157,0.4,0.4,89,0.00,,,0.00,Weather8,2013-05-19 09:40:00,
2013-05-19 05:45:00,56.7,53.5,30.05,ESE,112,2.0,2.0,89,0.00,,,0.00,Weather8,2013-05-19 09:45:00,
2013-05-19 05:50:00,56.7,53.5,30.05,SE,135,0.7,2.0,89,0.00,,,0.00,Weather8,2013-05-19 09:50:00,
2013-05-19 05:55:00,56.9,53.6,30.06,East,90,1.1,2.0,89,0.00,,,0.00,Weather8,2013-05-19 09:55:00,
2013-05-19 06:00:00,56.9,53.6,30.06,ESE,112,0.7,1.6,89,0.00,,,0.00,Weather8,2013-05-19 10:00:00,
2013-05-19 06:05:00,56.9,53.6,30.06,ESE,112,1.6,1.6,89,0.00,,,0.00,Weather8,2013-05-19 10:05:00,
2013-05-19 06:10:00,56.9,53.6,30.06,ESE,112,1.3,1.6,89,0.00,,,0.00,Weather8,2013-05-19 10:10:00,
2013-05-19 06:15:00,56.9,53.6,30.06,SSE,157,0.9,3.1,89,0.00,,,0.00,Weather8,2013-05-19 10:15:00,
2013-05-19 06:20:00,56.9,53.6,30.07,SSE,157,2.2,3.1,89,0.00,,,0.00,Weather8,2013-05-19 10:20:00,
2013-05-19 06:25:00,56.9,53.6,30.07,ESE,112,1.6,3.1,89,0.00,,,0.00,Weather8,2013-05-19 10:25:00,
2013-05-19 06:30:00,56.9,54.0,30.06,East,90,0.9,2.5,90,0.00,,,0.00,Weather8,2013-05-19 10:30:00,
2013-05-19 06:35:00,56.9,54.0,30.06,SE,135,1.8,2.0,90,0.00,,,0.00,Weather8,2013-05-19 10:35:00,
2013-05-19 06:40:00,56.9,54.0,30.06,ESE,112,0.4,2.0,90,0.00,,,0.00,Weather8,2013-05-19 10:40:00,
2013-05-19 06:45:00,57.1,54.2,30.06,SSE,157,2.0,2.0,90,0.00,,,0.00,Weather8,2013-05-19 10:45:00,
2013-05-19 06:50:00,57.1,54.2,30.07,ESE,112,1.8,2.0,90,0.00,,,0.00,Weather8,2013-05-19 10:50:00,
2013-05-19 06:55:00,57.1,54.2,30.07,ESE,112,2.5,2.5,90,0.00,,,0.00,Weather8,2013-05-19 10:55:00,
2013-05-19 07:00:00,57.1,54.2,30.07,SSW,202,2.2,2.5,90,0.00,,,0.00,Weather8,2013-05-19 11:00:00,
2013-05-19 07:05:00,57.2,54.4,30.07,SE,135,1.3,2.5,90,0.00,,,0.00,Weather8,2013-05-19 11:05:00,
2013-05-19 07:10:00,57.2,54.4,30.07,East,90,1.8,2.9,90,0.00,,,0.00,Weather8,2013-05-19 11:10:00,
2013-05-19 07:15:00,57.2,54.4,30.07,SSW,202,0.4,2.9,90,0.00,,,0.00,Weather8,2013-05-19 11:15:00,
2013-05-19 07:20:00,57.2,54.4,30.07,SSE,157,1.1,2.9,90,0.00,,,0.00,Weather8,2013-05-19 11:20:00,
2013-05-19 07:25:00,57.2,54.4,30.07,SSE,157,2.7,2.7,90,0.00,,,0.00,Weather8,2013-05-19 11:25:00,
2013-05-19 07:30:00,57.2,54.4,30.07,East,90,0.9,2.7,90,0.00,,,0.00,Weather8,2013-05-19 11:30:00,
2013-05-19 07:35:00,57.2,54.4,30.07,East,90,1.6,2.7,90,0.00,,,0.00,Weather8,2013-05-19 11:35:00,
2013-05-19 07:40:00,57.2,54.4,30.07,ESE,112,1.1,1.6,90,0.00,,,0.00,Weather8,2013-05-19 11:40:00,
2013-05-19 07:45:00,57.2,54.4,30.07,SE,135,0.2,1.6,90,0.00,,,0.00,Weather8,2013-05-19 11:45:00,
2013-05-19 07:50:00,57.2,54.4,30.07,SE,135,0.0,1.6,90,0.00,,,0.00,Weather8,2013-05-19 11:50:00,
2013-05-19 07:55:00,57.2,54.4,30.07,SE,135,0.4,1.3,90,0.00,,,0.00,Weather8,2013-05-19 11:55:00,
2013-05-19 08:00:00,57.2,54.4,30.08,ESE,112,2.5,2.5,90,0.00,,,0.00,Weather8,2013-05-19 12:00:00,
2013-05-19 08:05:00,57.2,54.4,30.07,SE,135,1.1,2.5,90,0.00,,,0.00,Weather8,2013-05-19 12:05:00,
2013-05-19 08:10:00,57.2,54.4,30.07,South,180,2.5,2.5,90,0.00,,,0.00,Weather8,2013-05-19 12:10:00,
2013-05-19 08:15:00,57.2,54.4,30.07,ESE,112,1.3,2.5,90,0.00,,,0.00,Weather8,2013-05-19 12:15:00,
2013-05-19 08:20:00,57.4,54.5,30.07,ESE,112,1.1,2.9,90,0.00,,,0.00,Weather8,2013-05-19 12:20:00,
2013-05-19 08:25:00,57.4,54.5,30.07,ESE,112,2.0,2.9,90,0.00,,,0.00,Weather8,2013-05-19 12:25:00,
2013-05-19 08:30:00,57.4,54.5,30.07,ESE,112,0.9,2.9,90,0.00,,,0.00,Weather8,2013-05-19 12:30:00,
2013-05-19 08:35:00,57.4,54.8,30.07,SW,225,1.8,2.5,91,0.00,,,0.00,Weather8,2013-05-19 12:35:00,
2013-05-19 08:40:00,57.4,54.8,30.08,SE,135,1.6,2.5,91,0.00,,,0.00,Weather8,2013-05-19 12:40:00,
2013-05-19 08:45:00,57.4,54.8,30.07,SSE,157,1.1,3.4,91,0.00,,,0.00,Weather8,2013-05-19 12:45:00,
2013-05-19 08:50:00,57.4,54.8,30.08,South,180,0.9,3.4,91,0.00,,,0.00,Weather8,2013-05-19 12:50:00,
2013-05-19 08:55:00,57.4,54.8,30.08,SE,135,0.4,2.5,91,0.00,,,0.00,Weather8,2013-05-19 12:55:00,
2013-05-19 09:00:00,57.4,54.8,30.07,SE,135,2.5,2.5,91,0.00,,,0.00,Weather8,2013-05-19 13:00:00,
2013-05-19 09:05:00,57.4,54.8,30.08,SE,135,2.0,2.7,91,0.00,,,0.00,Weather8,2013-05-19 13:05:00,
2013-05-19 09:10:00,57.4,54.8,30.07,SSE,157,0.9,2.7,91,0.00,,,0.00,Weather8,2013-05-19 13:10:00,
2013-05-19 09:15:00,57.4,54.8,30.08,SE,135,0.4,2.7,91,0.00,,,0.00,Weather8,2013-05-19 13:15:00,
2013-05-19 09:20:00,57.4,54.8,30.07,ENE,67,1.6,2.7,91,0.00,,,0.00,Weather8,2013-05-19 13:20:00,
2013-05-19 09:25:00,57.4,54.8,30.08,SW,225,1.6,2.7,91,0.00,,,0.00,Weather8,2013-05-19 13:25:00,
2013-05-19 09:30:00,57.2,54.6,30.08,SE,135,1.8,2.2,91,0.00,,,0.00,Weather8,2013-05-19 13:30:00,
2013-05-19 09:35:00,57.2,54.6,30.08,SE,135,1.1,2.2,91,0.00,,,0.00,Weather8,2013-05-19 13:35:00,
2013-05-19 09:40:00,57.2,54.6,30.08,SE,135,1.3,3.1,91,0.00,,,0.00,Weather8,2013-05-19 13:40:00,
2013-05-19 09:45:00,57.2,54.6,30.08,SE,135,2.5,3.1,91,0.00,,,0.00,Weather8,2013-05-19 13:45:00,
2013-05-19 09:50:00,57.2,54.6,30.08,ESE,112,1.1,3.1,91,0.00,,,0.00,Weather8,2013-05-19 13:50:00,
2013-05-19 09:55:00,57.2,54.6,30.08,SE,135,1.1,2.7,91,0.00,,,0.00,Weather8,2013-05-19 13:55:00,
2013-05-19 10:00:00,57.4,54.8,30.08,SE,135,0.9,2.7,91,0.00,,,0.00,Weather8,2013-05-19 14:00:00,
2013-05-19 10:05:00,57.2,54.6,30.08,South,180,0.2,2.0,91,0.00,,,0.00,Weather8,2013-05-19 14:05:00,
2013-05-19 10:10:00,57.4,54.8,30.08,SE,135,0.4,2.2,91,0.00,,,0.00,Weather8,2013-05-19 14:10:00,
2013-05-19 10:15:00,57.2,54.6,30.08,ESE,112,1.1,2.2,91,0.00,,,0.00,Weather8,2013-05-19 14:15:00,
2013-05-19 10:20:00,57.2,54.6,30.08,ESE,112,1.8,2.2,91,0.00,,,0.00,Weather8,2013-05-19 14:20:00,
2013-05-19 10:25:00,57.2,54.6,30.08,East,90,0.4,1.8,91,0.00,,,0.00,Weather8,2013-05-19 14:25:00,
2013-05-19 10:30:00,57.2,54.6,30.08,SE,135,0.9,1.8,91,0.00,,,0.00,Weather8,2013-05-19 14:30:00,
2013-05-19 10:35:00,57.2,54.6,30.08,SE,135,1.1,1.8,91,0.00,,,0.00,Weather8,2013-05-19 14:35:00,
2013-05-19 10:40:00,57.2,54.6,30.08,SE,135,0.4,1.8,91,0.00,,,0.00,Weather8,2013-05-19 14:40:00,
2013-05-19 10:45:00,57.2,54.6,30.08,ESE,112,1.1,2.0,91,0.00,,,0.00,Weather8,2013-05-19 14:45:00,
2013-05-19 10:50:00,57.2,54.6,30.08,SE,135,1.8,2.0,91,0.00,,,0.00,Weather8,2013-05-19 14:50:00,
2013-05-19 10:55:00,57.2,54.6,30.08,SSE,157,0.4,1.8,91,0.00,,,0.00,Weather8,2013-05-19 14:55:00,
2013-05-19 11:00:00,57.4,54.8,30.07,SE,135,0.7,1.8,91,0.00,,,0.00,Weather8,2013-05-19 15:00:00,
2013-05-19 11:05:00,57.4,54.8,30.07,ESE,112,1.1,1.6,91,0.00,,,0.00,Weather8,2013-05-19 15:05:00,
2013-05-19 11:10:00,57.6,55.0,30.08,East,90,1.3,1.8,91,0.00,,,0.00,Weather8,2013-05-19 15:10:00,
2013-05-19 11:15:00,57.6,55.0,30.08,ESE,112,1.1,1.8,91,0.00,,,0.00,Weather8,2013-05-19 15:15:00,
2013-05-19 11:20:00,57.6,55.0,30.08,East,90,1.6,1.8,91,0.00,,,0.00,Weather8,2013-05-19 15:20:00,
2013-05-19 11:25:00,57.4,54.8,30.08,East,90,2.5,2.5,91,0.00,,,0.00,Weather8,2013-05-19 15:25:00,
2013-05-19 11:30:00,57.4,54.8,30.08,ESE,112,1.8,2.5,91,0.00,,,0.00,Weather8,2013-05-19 15:30:00,
2013-05-19 11:35:00,57.2,54.6,30.08,SSE,157,0.7,2.5,91,0.00,,,0.00,Weather8,2013-05-19 15:35:00,
2013-05-19 11:40:00,57.2,54.6,30.07,SE,135,1.1,2.2,91,0.00,,,0.00,Weather8,2013-05-19 15:40:00,
2013-05-19 11:45:00,57.2,54.6,30.07,ESE,112,0.4,2.5,91,0.00,,,0.00,Weather8,2013-05-19 15:45:00,
2013-05-19 11:50:00,57.2,54.6,30.07,ESE,112,0.4,2.5,91,0.00,,,0.00,Weather8,2013-05-19 15:50:00,
2013-05-19 11:55:00,57.2,54.6,30.07,SE,135,1.3,2.2,91,0.00,,,0.00,Weather8,2013-05-19 15:55:00,
2013-05-19 12:00:00,57.2,54.6,30.07,East,90,0.7,2.2,91,0.00,,,0.00,Weather8,2013-05-19 16:00:00,
2013-05-19 12:05:00,57.2,54.6,30.07,SSE,157,1.3,4.0,91,0.00,,,0.00,Weather8,2013-05-19 16:05:00,
2013-05-19 12:10:00,57.2,54.6,30.07,ESE,112,1.3,4.0,91,0.00,,,0.00,Weather8,2013-05-19 16:10:00,
2013-05-19 12:15:00,57.2,54.6,30.07,ESE,112,1.1,4.0,91,0.00,,,0.00,Weather8,2013-05-19 16:15:00,
2013-05-19 12:20:00,57.2,54.6,30.06,SE,135,1.1,2.7,91,0.00,,,0.00,Weather8,2013-05-19 16:20:00,
2013-05-19 12:25:00,57.2,54.6,30.06,SE,135,1.1,2.7,91,0.00,,,0.00,Weather8,2013-05-19 16:25:00,
2013-05-19 12:30:00,57.4,54.8,30.06,East,90,1.8,2.5,91,0.00,,,0.00,Weather8,2013-05-19 16:30:00,
2013-05-19 12:35:00,57.4,54.8,30.06,ESE,112,2.7,2.7,91,0.00,,,0.00,Weather8,2013-05-19 16:35:00,
2013-05-19 12:40:00,57.4,54.8,30.06,NNE,22,0.4,2.7,91,0.00,,,0.00,Weather8,2013-05-19 16:40:00,
2013-05-19 12:45:00,57.4,54.8,30.06,ESE,112,2.0,2.7,91,0.00,,,0.00,Weather8,2013-05-19 16:45:00,
2013-05-19 12:50:00,57.4,54.8,30.06,West,270,0.9,2.5,91,0.00,,,0.00,Weather8,2013-05-19 16:50:00,
2013-05-19 12:55:00,57.4,54.8,30.05,WNW,292,0.7,2.0,91,0.00,,,0.00,Weather8,2013-05-19 16:55:00,
2013-05-19 13:00:00,57.6,55.0,30.05,SE,135,1.8,2.0,91,0.00,,,0.00,Weather8,2013-05-19 17:00:00,
2013-05-19 13:05:00,57.6,55.0,30.05,ESE,112,1.8,2.7,91,0.00,,,0.00,Weather8,2013-05-19 17:05:00,
2013-05-19 13:10:00,57.8,55.2,30.05,SE,135,0.4,2.7,91,0.00,,,0.00,Weather8,2013-05-19 17:10:00,
2013-05-19 13:15:00,58.0,55.4,30.04,SSE,157,0.4,2.5,91,0.00,,,0.00,Weather8,2013-05-19 17:15:00,
2013-05-19 13:20:00,58.0,55.4,30.04,East,90,2.0,2.5,91,0.00,,,0.00,Weather8,2013-05-19 17:20:00,
2013-05-19 13:25:00,58.0,55.4,30.04,East,90,1.6,2.0,91,0.00,,,0.00,Weather8,2013-05-19 17:25:00,
2013-05-19 13:30:00,58.0,55.4,30.04,ESE,112,1.6,3.4,91,0.00,,,0.00,Weather8,2013-05-19 17:30:00,
2013-05-19 13:35:00,58.0,55.4,30.03,SSE,157,1.1,3.4,91,0.00,,,0.00,Weather8,2013-05-19 17:35:00,
2013-05-19 13:40:00,58.0,55.4,30.03,South,180,2.2,2.7,91,0.00,,,0.00,Weather8,2013-05-19 17:40:00,
2013-05-19 13:45:00,58.1,55.5,30.03,SE,135,2.0,4.0,91,0.00,,,0.00,Weather8,2013-05-19 17:45:00,
2013-05-19 13:50:00,58.1,55.5,30.02,South,180,1.6,4.0,91,0.00,,,0.00,Weather8,2013-05-19 17:50:00,
2013-05-19 13:55:00,58.1,55.5,30.02,East,90,1.8,4.0,91,0.00,,,0.00,Weather8,2013-05-19 17:55:00,
2013-05-19 14:00:00,58.1,55.5,30.02,South,180,2.9,3.4,91,0.00,,,0.00,Weather8,2013-05-19 18:00:00,
2013-05-19 14:05:00,58.1,55.5,30.02,ESE,112,1.1,2.9,91,0.00,,,0.00,Weather8,2013-05-19 18:05:00,
2013-05-19 14:10:00,58.1,55.5,30.02,SSW,202,0.9,2.9,91,0.00,,,0.00,Weather8,2013-05-19 18:10:00,
2013-05-19 14:15:00,58.3,55.7,30.02,ESE,112,2.5,2.5,91,0.00,,,0.00,Weather8,2013-05-19 18:15:00,
2013-05-19 14:20:00,58.1,55.5,30.02,SE,135,0.7,2.5,91,0.00,,,0.00,Weather8,2013-05-19 18:20:00,
2013-05-19 14:25:00,58.3,55.7,30.02,SE,135,1.6,2.5,91,0.00,,,0.00,Weather8,2013-05-19 18:25:00,
2013-05-19 14:30:00,58.3,55.7,30.02,NNW,337,2.2,2.2,91,0.00,,,0.00,Weather8,2013-05-19 18:30:00,
2013-05-19 14:35:00,58.3,55.7,30.02,South,180,1.8,2.9,91,0.00,,,0.00,Weather8,2013-05-19 18:35:00,
2013-05-19 14:40:00,58.3,55.7,30.02,SW,225,2.5,2.9,91,0.00,,,0.00,Weather8,2013-05-19 18:40:00,
2013-05-19 14:45:00,58.3,55.7,30.02,ESE,112,2.7,2.9,91,0.00,,,0.00,Weather8,2013-05-19 18:45:00,
2013-05-19 14:50:00,58.1,55.5,30.02,NNW,337,1.3,2.7,91,0.00,,,0.00,Weather8,2013-05-19 18:50:00,
2013-05-19 14:55:00,58.1,55.5,30.02,SW,225,1.6,2.7,91,0.00,,,0.00,Weather8,2013-05-19 18:55:00,
2013-05-19 15:00:00,58.1,55.5,30.02,WSW,247,1.1,1.8,91,0.00,,,0.00,Weather8,2013-05-19 19:00:00,
2013-05-19 15:05:00,58.3,55.7,30.01,SSE,157,2.2,2.2,91,0.00,,,0.00,Weather8,2013-05-19 19:05:00,
2013-05-19 15:10:00,58.3,55.7,30.01,SE,135,0.4,2.5,91,0.00,,,0.00,Weather8,2013-05-19 19:10:00,
2013-05-19 15:15:00,58.1,55.5,30.01,ESE,112,0.7,2.5,91,0.00,,,0.00,Weather8,2013-05-19 19:15:00,
2013-05-19 15:20:00,58.1,55.5,30.01,ESE,112,0.4,2.5,91,0.00,,,0.00,Weather8,2013-05-19 19:20:00,
2013-05-19 15:25:00,58.1,55.5,30.00,SSE,157,0.9,1.3,91,0.00,,,0.00,Weather8,2013-05-19 19:25:00,
2013-05-19 15:30:00,58.1,55.5,30.00,SSE,157,0.9,1.3,91,0.00,,,0.00,Weather8,2013-05-19 19:30:00,
2013-05-19 15:35:00,58.1,55.5,30.00,SSE,157,0.9,0.9,91,0.00,,,0.00,Weather8,2013-05-19 19:35:00,
2013-05-19 15:40:00,58.1,55.5,30.00,SSE,157,0.9,0.9,91,0.00,,,0.00,Weather8,2013-05-19 19:40:00,
2013-05-19 15:45:00,58.1,55.5,30.00,SSE,157,0.9,0.9,91,0.00,,,0.00,Weather8,2013-05-19 19:45:00,
2013-05-19 15:50:00,58.1,55.5,30.00,SSE,157,0.9,0.9,91,0.00,,,0.00,Weather8,2013-05-19 19:50:00,
2013-05-19 15:55:00,58.1,55.5,29.99,East,90,1.3,1.3,91,0.00,,,0.00,Weather8,2013-05-19 19:55:00,
2013-05-19 16:00:00,58.1,55.5,29.99,SE,135,1.3,1.3,91,0.00,,,0.00,Weather8,2013-05-19 20:00:00,
2013-05-19 16:05:00,58.1,55.5,29.99,SE,135,1.8,2.5,91,0.00,,,0.00,Weather8,2013-05-19 20:05:00,
2013-05-19 16:10:00,58.1,55.5,29.98,WSW,247,0.7,2.5,91,0.00,,,0.00,Weather8,2013-05-19 20:10:00,
2013-05-19 16:15:00,58.1,55.5,29.98,South,180,2.5,2.5,91,0.00,,,0.00,Weather8,2013-05-19 20:15:00,
2013-05-19 16:20:00,58.1,55.5,29.98,ESE,112,0.4,2.5,91,0.00,,,0.00,Weather8,2013-05-19 20:20:00,
2013-05-19 16:25:00,58.3,55.7,29.98,SSW,202,0.4,2.5,91,0.00,,,0.00,Weather8,2013-05-19 20:25:00,
2013-05-19 16:30:00,58.3,55.7,29.98,South,180,1.1,1.6,91,0.00,,,0.00,Weather8,2013-05-19 20:30:00,
2013-05-19 16:35:00,58.3,55.7,29.98,SSE,157,1.6,2.2,91,0.00,,,0.00,Weather8,2013-05-19 20:35:00,
2013-05-19 16:40:00,58.3,55.7,29.98,SSW,202,0.2,2.2,91,0.00,,,0.00,Weather8,2013-05-19 20:40:00,
2013-05-19 16:45:00,58.3,55.7,29.98,SE,135,0.2,2.2,91,0.00,,,0.00,Weather8,2013-05-19 20:45:00,
2013-05-19 16:50:00,58.5,55.9,29.98,NNW,337,0.9,2.2,91,0.00,,,0.00,Weather8,2013-05-19 20:50:00,
2013-05-19 16:55:00,58.5,55.9,29.98,SE,135,0.2,2.0,91,0.00,,,0.00,Weather8,2013-05-19 20:55:00,
2013-05-19 17:00:00,58.7,56.1,29.98,SSW,202,1.1,1.8,91,0.00,,,0.00,Weather8,2013-05-19 21:00:00,
2013-05-19 17:05:00,58.7,56.1,29.98,SSW,202,0.4,1.8,91,0.00,,,0.00,Weather8,2013-05-19 21:05:00,
2013-05-19 17:10:00,58.7,56.1,29.97,ENE,67,1.1,1.8,91,0.00,,,0.00,Weather8,2013-05-19 21:10:00,
2013-05-19 17:15:00,58.7,56.1,29.97,WSW,247,1.8,1.8,91,0.00,,,0.00,Weather8,2013-05-19 21:15:00,
2013-05-19 17:20:00,58.7,56.1,29.98,SSW,202,0.9,2.0,91,0.00,,,0.00,Weather8,2013-05-19 21:20:00,
2013-05-19 17:25:00,58.9,56.3,29.97,SSW,202,1.6,2.0,91,0.00,,,0.00,Weather8,2013-05-19 21:25:00,
2013-05-19 17:30:00,58.9,56.3,29.97,SW,225,1.8,2.7,91,0.00,,,0.00,Weather8,2013-05-19 21:30:00,
2013-05-19 17:35:00,58.9,56.3,29.97,SSE,157,0.9,2.7,91,0.00,,,0.00,Weather8,2013-05-19 21:35:00,
2013-05-19 17:40:00,58.9,56.3,29.97,SSE,157,1.8,1.8,91,0.00,,,0.00,Weather8,2013-05-19 21:40:00,
2013-05-19 17:45:00,58.9,56.3,29.97,SSW,202,0.9,3.1,91,0.00,,,0.00,Weather8,2013-05-19 21:45:00,
2013-05-19 17:50:00,59.0,56.4,29.97,SSE,157,2.5,3.1,91,0.00,,,0.00,Weather8,2013-05-19 21:50:00,
2013-05-19 17:55:00,59.0,56.7,29.97,South,180,0.4,3.1,92,0.00,,,0.00,Weather8,2013-05-19 21:55:00,
2013-05-19 18:00:00,59.0,56.7,29.97,WSW,247,0.4,2.5,92,0.00,,,0.00,Weather8,2013-05-19 22:00:00,
2013-05-19 18:05:00,59.0,56.7,29.97,ESE,112,0.2,2.5,92,0.00,,,0.00,Weather8,2013-05-19 22:05:00,
2013-05-19 18:10:00,59.2,56.9,29.97,SSW,202,0.4,2.9,92,0.00,,,0.00,Weather8,2013-05-19 22:10:00,
2013-05-19 18:15:00,59.2,56.9,29.97,SSW,202,1.1,2.9,92,0.00,,,0.00,Weather8,2013-05-19 22:15:00,
2013-05-19 18:20:00,59.2,56.9,29.97,ESE,112,0.9,2.9,92,0.00,,,0.00,Weather8,2013-05-19 22:20:00,
2013-05-19 18:25:00,59.2,56.9,29.97,ESE,112,1.1,2.5,92,0.00,,,0.00,Weather8,2013-05-19 22:25:00,
2013-05-19 18:30:00,59.4,57.1,29.97,East,90,1.3,2.5,92,0.00,,,0.00,Weather8,2013-05-19 22:30:00,
2013-05-19 18:35:00,59.4,57.1,29.97,SW,225,1.3,2.5,92,0.00,,,0.00,Weather8,2013-05-19 22:35:00,
2013-05-19 18:40:00,59.4,57.1,29.97,SSW,202,1.1,2.2,92,0.00,,,0.00,Weather8,2013-05-19 22:40:00,
2013-05-19 18:45:00,59.4,57.1,29.97,South,180,1.1,2.0,92,0.00,,,0.00,Weather8,2013-05-19 22:45:00,
2013-05-19 18:50:00,59.4,57.1,29.97,SSW,202,1.6,1.6,92,0.00,,,0.00,Weather8,2013-05-19 22:50:00,
2013-05-19 18:55:00,59.4,57.1,29.97,South,180,1.1,1.6,92,0.00,,,0.00,Weather8,2013-05-19 22:55:00,
2013-05-19 19:00:00,59.6,57.2,29.97,SE,135,0.4,1.6,92,0.00,,,0.00,Weather8,2013-05-19 23:00:00,
2013-05-19 19:05:00,59.6,57.2,29.97,South,180,1.3,1.3,92,0.00,,,0.00,Weather8,2013-05-19 23:05:00,
2013-05-19 19:10:00,59.6,57.2,29.97,South,180,0.2,1.6,92,0.00,,,0.00,Weather8,2013-05-19 23:10:00,
2013-05-19 19:15:00,59.6,57.2,29.97,South,180,1.8,1.8,92,0.00,,,0.00,Weather8,2013-05-19 23:15:00,
2013-05-19 19:20:00,59.6,57.2,29.97,South,180,0.4,1.8,92,0.00,,,0.00,Weather8,2013-05-19 23:20:00,
2013-05-19 19:25:00,59.6,57.2,29.97,South,180,0.0,1.8,92,0.00,,,0.00,Weather8,2013-05-19 23:25:00,
2013-05-19 19:30:00,59.6,57.2,29.97,SW,225,0.0,0.9,92,0.00,,,0.00,Weather8,2013-05-19 23:30:00,
2013-05-19 19:35:00,59.8,57.4,29.97,SSE,157,0.9,0.9,92,0.00,,,0.00,Weather8,2013-05-19 23:35:00,
2013-05-19 19:40:00,59.8,57.4,29.97,SE,135,0.4,1.1,92,0.00,,,0.00,Weather8,2013-05-19 23:40:00,
2013-05-19 19:45:00,59.8,57.4,29.97,SSE,157,0.2,1.1,92,0.00,,,0.00,Weather8,2013-05-19 23:45:00,
2013-05-19 19:50:00,59.8,57.4,29.97,SW,225,0.0,1.6,92,0.00,,,0.00,Weather8,2013-05-19 23:50:00,
2013-05-19 19:55:00,59.8,57.4,29.97,South,180,0.2,1.6,92,0.00,,,0.00,Weather8,2013-05-19 23:55:00,
2013-05-19 20:00:00,59.8,57.4,29.97,SSE,157,0.4,1.6,92,0.00,,,0.00,Weather8,2013-05-20 00:00:00,
2013-05-19 20:05:00,59.8,57.4,29.97,SSE,157,0.0,0.7,92,0.00,,,0.00,Weather8,2013-05-20 00:05:00,
2013-05-19 20:10:00,59.8,57.2,29.97,SE,135,0.0,0.9,91,0.00,,,0.00,Weather8,2013-05-20 00:10:00,
2013-05-19 20:18:00,59.8,57.4,29.97,South,180,0.9,0.9,92,0.00,,,0.00,Weather8,2013-05-20 00:18:00,
2013-05-19 20:24:00,59.8,57.4,29.97,ESE,112,0.4,0.9,92,0.00,,,0.00,Weather8,2013-05-20 00:24:00,
2013-05-19 20:29:00,59.8,57.4,29.97,ESE,112,0.0,0.9,92,0.00,,,0.00,Weather8,2013-05-20 00:29:00,
2013-05-19 20:34:00,59.8,57.4,29.97,SE,135,0.4,0.4,92,0.00,,,0.00,Weather8,2013-05-20 00:34:00,
2013-05-19 20:39:00,59.8,57.4,29.97,SSE,157,0.4,1.1,92,0.00,,,0.00,Weather8,2013-05-20 00:39:00,
2013-05-19 20:44:00,59.8,57.4,29.97,SE,135,0.0,1.1,92,0.00,,,0.00,Weather8,2013-05-20 00:44:00,
2013-05-19 20:49:00,59.8,57.4,29.97,SE,135,0.0,1.1,92,0.00,,,0.00,Weather8,2013-05-20 00:49:00,
2013-05-19 20:54:00,59.8,57.4,29.97,SE,135,0.4,1.1,92,0.00,,,0.00,Weather8,2013-05-20 00:54:00,
2013-05-19 20:59:00,59.8,57.4,29.97,SE,135,0.9,1.1,92,0.00,,,0.00,Weather8,2013-05-20 00:59:00,
2013-05-19 21:04:00,59.8,57.4,29.97,SE,135,1.1,1.1,92,0.00,,,0.00,Weather8,2013-05-20 01:04:00,
2013-05-19 21:09:00,59.8,57.4,29.97,SE,135,0.2,1.1,92,0.00,,,0.00,Weather8,2013-05-20 01:09:00,
2013-05-19 21:14:00,59.8,57.4,29.96,SSE,157,0.0,1.1,92,0.00,,,0.00,Weather8,2013-05-20 01:14:00,
2013-05-19 21:19:00,59.8,57.4,29.96,South,180,0.0,0.9,92,0.00,,,0.00,Weather8,2013-05-20 01:19:00,
2013-05-19 21:24:00,59.6,57.2,29.95,South,180,0.4,1.1,92,0.00,,,0.00,Weather8,2013-05-20 01:24:00,
2013-05-19 21:29:00,59.6,57.2,29.95,SE,135,0.4,1.1,92,0.00,,,0.00,Weather8,2013-05-20 01:29:00,
2013-05-19 21:34:00,59.6,57.2,29.95,SSE,157,0.4,1.1,92,0.00,,,0.00,Weather8,2013-05-20 01:34:00,
2013-05-19 21:39:00,59.6,57.2,29.95,SSE,157,0.0,1.1,92,0.00,,,0.00,Weather8,2013-05-20 01:39:00,
2013-05-19 21:44:00,59.6,57.2,29.95,SSE,157,0.2,0.9,92,0.00,,,0.00,Weather8,2013-05-20 01:44:00,
2013-05-19 21:49:00,59.6,57.2,29.96,SSW,202,0.4,1.6,92,0.00,,,0.00,Weather8,2013-05-20 01:49:00,
2013-05-19 21:54:00,59.8,57.4,29.96,SE,135,0.2,1.6,92,0.00,,,0.00,Weather8,2013-05-20 01:54:00,
2013-05-19 21:59:00,59.8,57.4,29.96,South,180,0.4,1.6,92,0.00,,,0.00,Weather8,2013-05-20 01:59:00,
2013-05-19 22:04:00,59.8,57.4,29.96,SSW,202,0.7,2.0,92,0.00,,,0.00,Weather8,2013-05-20 02:04:00,
2013-05-19 22:09:00,59.8,57.4,29.96,SSW,202,0.7,2.0,92,0.00,,,0.00,Weather8,2013-05-20 02:09:00,
2013-05-19 22:14:00,59.8,57.4,29.96,SW,225,0.4,0.7,92,0.00,,,0.00,Weather8,2013-05-20 02:14:00,
2013-05-19 22:19:00,59.8,57.4,29.97,SW,225,0.4,0.7,92,0.00,,,0.00,Weather8,2013-05-20 02:19:00,
2013-05-19 22:24:00,59.8,57.4,29.97,SSW,202,1.1,1.1,92,0.00,,,0.00,Weather8,2013-05-20 02:24:00,
2013-05-19 22:29:00,59.9,57.6,29.96,SW,225,0.4,1.3,92,0.00,,,0.00,Weather8,2013-05-20 02:29:00,
2013-05-19 22:34:00,59.9,57.6,29.96,South,180,1.3,1.3,92,0.00,,,0.00,Weather8,2013-05-20 02:34:00,
2013-05-19 22:39:00,59.9,57.6,29.96,SW,225,0.7,1.3,92,0.00,,,0.00,Weather8,2013-05-20 02:39:00,
2013-05-19 22:44:00,60.1,57.8,29.97,SW,225,0.0,1.3,92,0.00,,,0.00,Weather8,2013-05-20 02:44:00,
2013-05-19 22:49:00,60.1,57.8,29.97,SW,225,0.0,0.7,92,0.00,,,0.00,Weather8,2013-05-20 02:49:00,
2013-05-19 22:54:00,60.1,57.8,29.97,SW,225,0.0,0.2,92,0.00,,,0.00,Weather8,2013-05-20 02:54:00,
2013-05-19 22:59:00,60.1,57.8,29.97,SW,225,0.4,1.3,92,0.00,,,0.00,Weather8,2013-05-20 02:59:00,
2013-05-19 23:04:00,60.1,57.8,29.97,SSW,202,0.7,1.3,92,0.00,,,0.00,Weather8,2013-05-20 03:04:00,
2013-05-19 23:09:00,60.1,57.8,29.97,SSW,202,0.4,1.3,92,0.00,,,0.00,Weather8,2013-05-20 03:09:00,
2013-05-19 23:14:00,60.1,57.8,29.96,SSW,202,1.3,1.3,92,0.00,,,0.00,Weather8,2013-05-20 03:14:00,
2013-05-19 23:19:00,60.1,57.8,29.96,SSW,202,0.0,1.3,92,0.00,,,0.00,Weather8,2013-05-20 03:19:00,
2013-05-19 23:24:00,60.1,57.8,29.96,SSW,202,0.0,1.3,92,0.00,,,0.00,Weather8,2013-05-20 03:24:00,
2013-05-19 23:29:00,60.1,57.8,29.96,SSW,202,0.0,0.0,92,0.00,,,0.00,Weather8,2013-05-20 03:29:00,
2013-05-19 23:34:00,60.1,57.8,29.96,SSW,202,0.0,0.2,92,0.00,,,0.00,Weather8,2013-05-20 03:34:00,
2013-05-19 23:39:00,60.1,57.8,29.96,SSW,202,0.0,0.2,92,0.00,,,0.00,Weather8,2013-05-20 03:39:00,
2013-05-19 23:44:00,60.3,58.0,29.96,SSW,202,0.0,0.0,92,0.00,,,0.00,Weather8,2013-05-20 03:44:00,
2013-05-19 23:49:00,60.3,58.0,29.97,WSW,247,0.0,0.0,92,0.00,,,0.00,Weather8,2013-05-20 03:49:00,
2013-05-19 23:54:00,60.3,58.0,29.97,WSW,247,0.0,0.0,92,0.00,,,0.00,Weather8,2013-05-20 03:54:00,
2013-05-19 23:59:00,60.3,58.0,29.96,WSW,247,0.0,0.0,92,0.00,,,0.00,Weather8,2013-05-20 03:59:00,